This is the latest recevied weather packets stored in our database for station/object F4JYN. If no packets are shown the sender has not sent any weather packets the latest 10 day(s).
| Time | Temp. | Humidity | Pressure | Rain* | Wind** | Luminosity | Snow |
|---|---|---|---|---|---|---|---|
| 1787715658 | 20° C | 45% | 982 hPa | - | - | - | - |
| 1787715057 | 20° C | 45% | 981.9 hPa | - | - | - | - |
| 1787714457 | 19.44° C | 45% | 981.9 hPa | - | - | - | - |
| 1787713856 | 19.44° C | 45% | 982 hPa | - | - | - | - |
| 1787713256 | 18.89° C | 45% | 982.1 hPa | - | - | - | - |
| 1787712656 | 20° C | 45% | 981.9 hPa | - | - | - | - |
| 1787712055 | 19.44° C | 45% | 981.9 hPa | - | - | - | - |
| 1787711455 | 20° C | 45% | 981.9 hPa | - | - | - | - |
| 1787710855 | 20° C | 45% | 981.9 hPa | - | - | - | - |
| 1787710254 | 20° C | 45% | 982 hPa | - | - | - | - |
| 1787709654 | 19.44° C | 45% | 982.1 hPa | - | - | - | - |
| 1787709053 | 20° C | 45% | 982.1 hPa | - | - | - | - |
| 1787708453 | 19.44° C | 45% | 981.9 hPa | - | - | - | - |
| 1787707852 | 20° C | 45% | 981.7 hPa | - | - | - | - |
| 1787707251 | 19.44° C | 45% | 981.7 hPa | - | - | - | - |
| 1787706050 | 19.44° C | 45% | 981.9 hPa | - | - | - | - |
| 1787705450 | 18.89° C | 45% | 981.8 hPa | - | - | - | - |
| 1787704849 | 19.44° C | 45% | 981.8 hPa | - | - | - | - |
| 1787704248 | 20° C | 45% | 981.8 hPa | - | - | - | - |
| 1787703647 | 20° C | 45% | 981.8 hPa | - | - | - | - |
| 1787703046 | 20° C | 45% | 981.8 hPa | - | - | - | - |
| 1787702446 | 19.44° C | 45% | 981.8 hPa | - | - | - | - |
| 1787701846 | 20° C | 45% | 981.9 hPa | - | - | - | - |
| 1787701245 | 19.44° C | 45% | 981.9 hPa | - | - | - | - |
| 1787700644 | 19.44° C | 45% | 981.9 hPa | - | - | - | - |
* Rain since midnight (hover to see other rain measurements)
** Current wind speed in m/s (hover to see current wind gust speed)